User: anonymous   Login
Location: Caltech
(34.1382°N, 118.1253°W)
Time: 01:20:56
(UTC-07:00)
Language:

OAO 1 Rocket - Orbit

View from above orbital plane
View from above orbital plane
View from above satellite
View from above satellite

Ground track
Ground track

The orbit data is extracted from the following two-line orbital elements,

1  2144U 66031B   18114.83152955 +.00000058 +00000-0 +22933-4 0  9996
2  2144 035.0424 275.4038 0007591 107.9340 252.2178 14.42669470732716
Epoch (UTC): 24 April 2018 19:57:24
Eccentricity: 0.0007591
inclination: 35.0424°
perigee height: 744 km
apogee height: 755 km
right ascension of ascending node: 275.4038°
argument of perigee: 107.9340°
revolutions per day: 14.42669470
mean anomaly at epoch: 252.2178°
orbit number at epoch: 73271

The dashed part of the orbit path shows where the satellite is in the earth's shadow,  

DLR